W6DSP Weather Reports


Display with metric or nautical units.
time (UTC)temp
F
wind
direction
speed
MPH
gust
MPH
rain 1hr
in
rain 24hr
in
rain mn
in
humidity
%
barometer
mb
20220528113405 55 337 1.0 7.0 0.00 0.16 0.00 86 1011.9
20220528112128 54 349 0.0 4.0 0.00 0.16 0.00 86 1011.7
20220528110943 55 355 0.0 6.0 0.00 0.16 0.00 86 1011.6
20220528105724 54 341 0.0 6.0 0.00 0.16 0.00 86 1011.7
20220528104503 54 5 0.0 3.0 0.00 0.16 0.00 87 1011.5
20220528103224 54 355 0.0 2.0 0.00 0.16 0.00 87 1011.3
20220528101945 54 346 0.0 3.0 0.00 0.16 0.00 87 1011.1
20220528100811 54 11 0.0 2.0 0.00 0.16 0.00 87 1011.0
20220528095634 54 11 0.0 3.0 0.00 0.16 0.00 87 1010.8
20220528094406 54 0 0.0 2.0 0.00 0.16 0.00 87 1010.6
20220528093211 54 331 0.0 0.0 0.00 0.16 0.00 87 1010.3
20220528092000 54 331 0.0 0.0 0.00 0.16 0.00 86 1010.4
20220528090826 54 343 0.0 3.0 0.00 0.16 0.00 86 1010.3
20220528085549 53 5 0.0 3.0 0.00 0.16 0.00 86 1010.2
20220528084336 53 29 0.0 3.0 0.00 0.16 0.00 86 1009.9
20220528083115 53 52 0.0 3.0 0.00 0.16 0.00 86 1009.8
20220528081918 53 343 1.0 4.0 0.00 0.16 0.00 86 1009.9
20220528080651 53 341 1.0 6.0 0.00 0.16 0.00 87 1009.9
20220528075444 53 325 0.0 6.0 0.00 0.16 0.00 87 1009.7
20220528074308 52 350 0.0 3.0 0.00 0.16 0.00 87 1009.6
20220528073040 52 348 0.0 3.0 0.00 0.16 0.00 88 1009.3
20220528071835 52 312 0.0 2.0 0.00 0.16 0.00 89 1009.4
20220528070619 51 300 0.0 1.0 0.00 0.16 0.00 88 1009.3
20220528065436 51 278 0.0 0.0 0.00 0.16 0.00 88 1009.3
20220528064203 51 278 0.0 0.0 0.00 0.16 0.00 87 1009.2
20220528063006 52 278 0.0 0.0 0.00 0.16 0.00 86 1009.1
20220528061749 52 331 0.0 6.0 0.00 0.16 0.00 85 1009.1
20220528060554 52 346 0.0 4.0 0.00 0.16 0.00 86 1009.2
20220528055347 52 346 0.0 4.0 0.00 0.16 0.00 86 1009.3
20220528054207 52 351 0.0 4.0 0.00 0.16 0.00 85 1009.3
20220528053026 52 340 0.0 4.0 0.00 0.16 0.00 85 1009.2
20220528051754 53 348 0.0 6.0 0.00 0.16 0.00 85 1009.2
20220528050617 53 22 1.0 4.0 0.00 0.16 0.00 85 1009.2
20220528045437 53 21 1.0 6.0 0.00 0.16 0.00 85 1009.2
20220528044238 53 342 1.0 6.0 0.00 0.16 0.00 85 1009.2
20220528043041 53 0 1.0 6.0 0.00 0.16 0.00 85 1009.1
20220528041832 54 29 1.0 8.0 0.00 0.16 0.00 85 1009.0
20220528040555 54 5 1.0 4.0 0.00 0.16 0.00 86 1008.6
20220528035355 55 22 1.0 4.0 0.00 0.16 0.17 86 1008.4
20220528034151 55 336 0.0 7.0 0.00 0.16 0.17 86 1008.4
20220528032950 56 329 1.0 7.0 0.00 0.16 0.17 85 1008.4
20220528031808 56 5 1.0 11.0 0.00 0.16 0.17 86 1008.3
20220528030623 57 355 1.0 11.0 0.00 0.16 0.17 86 1008.4
20220528025353 57 5 1.0 8.0 0.00 0.16 0.17 86 1008.3
20220528024223 57 348 1.0 7.0 0.00 0.16 0.17 87 1008.2
20220528022956 57 347 1.0 12.0 0.00 0.16 0.17 87 1008.1
20220528021746 57 24 3.0 12.0 0.00 0.16 0.17 87 1008.0
20220528020522 57 70 3.0 11.0 0.00 0.16 0.17 88 1007.9
20220528015343 57 321 1.0 9.0 0.00 0.16 0.17 88 1007.8
20220528014121 57 355 3.0 7.0 0.00 0.16 0.17 88 1007.6
20220528012918 57 327 3.0 12.0 0.00 0.16 0.17 89 1007.4
20220528011741 57 316 3.0 12.0 0.00 0.16 0.17 88 1007.2
20220528010558 57 9 4.0 12.0 0.00 0.16 0.17 88 1007.2
20220528005428 57 0 3.0 11.0 0.00 0.16 0.17 88 1007.0
20220528004211 58 340 1.0 14.0 0.00 0.16 0.17 88 1007.0
20220528003026 58 322 3.0 14.0 0.00 0.16 0.17 88 1006.9
20220528001848 58 225 3.0 12.0 0.00 0.16 0.17 88 1006.7
20220528000659 58 5 1.0 9.0 0.00 0.16 0.17 88 1006.5
20220527235459 58 343 3.0 11.0 0.00 0.16 0.17 88 1006.4
20220527234223 59 0 3.0 18.0 0.00 0.16 0.17 88 1006.3
20220527233044 59 344 4.0 12.0 0.00 0.16 0.17 87 1006.3
20220527231820 61 0 3.0 11.0 0.00 0.16 0.17 88 1006.0
20220527230630 61 355 1.0 11.0 0.00 0.16 0.16 88 1005.8
20220527225352 62 295 3.0 11.0 0.00 0.16 0.16 88 1005.7
20220527224152 62 0 1.0 6.0 0.08 0.16 0.16 88 1005.5
20220527222930 63 337 3.0 6.0 0.00 0.13 0.13 89 1005.4
20220527221724 63 15 0.0 3.0 0.09 0.13 0.13 89 1005.4
20220527220455 63 5 0.0 2.0 0.13 0.12 0.12 89 1005.5
20220527215233 63 18 0.0 1.0 0.16 0.08 0.09 89 1005.5
20220527214043 63 313 0.0 6.0 0.18 0.06 0.06 88 1005.4
20220527212830 64 333 0.0 4.0 0.13 0.03 0.03 88 1005.4
20220527211644 64 22 1.0 4.0 0.00 0.01 0.01 87 1005.3
20220527210453 64 334 1.0 9.0 0.00 0.00 0.01 85 1005.3
20220527205318 65 348 3.0 11.0 0.00 0.00 0.00 83 1005.0
20220527204103 66 315 3.0 11.0 0.00 0.00 0.00 80 1004.7
20220527202828 68 325 1.0 8.0 0.00 0.00 0.00 79 1004.6
20220527201556 69 80 1.0 7.0 0.00 0.00 0.00 76 1004.3
20220527200354 68 80 0.0 3.0 0.00 0.00 0.00 77 1004.3
20220527195136 67 48 1.0 8.0 0.00 0.00 0.00 78 1004.5
20220527193904 67 135 1.0 8.0 0.00 0.00 0.00 76 1004.6
20220527192734 67 75 0.0 4.0 0.00 0.00 0.00 78 1004.7
20220527191525 68 261 1.0 6.0 0.00 0.00 0.00 75 1004.7
20220527190349 69 24 0.0 7.0 0.00 0.00 0.00 70 1004.5
20220527185118 70 244 1.0 8.0 0.00 0.00 0.00 70 1004.4
20220527183908 71 275 3.0 12.0 0.00 0.00 0.00 67 1004.5
20220527182724 71 115 3.0 12.0 0.00 0.00 0.00 69 1004.4
20220527181447 70 197 1.0 6.0 0.00 0.00 0.00 70 1004.6
20220527180313 69 134 1.0 9.0 0.00 0.00 0.00 72 1004.8
20220527175052 68 113 1.0 9.0 0.00 0.00 0.00 71 1004.9
20220527173827 68 155 1.0 8.0 0.00 0.02 0.00 71 1004.9
20220527172647 68 184 3.0 9.0 0.00 0.02 0.00 72 1004.9
20220527171514 68 272 3.0 11.0 0.00 0.02 0.00 72 1004.8
20220527170333 68 115 3.0 11.0 0.00 0.02 0.00 71 1004.6
20220527165052 69 290 1.0 11.0 0.00 0.02 0.00 70 1004.8
20220527163812 68 143 3.0 11.0 0.00 0.03 0.00 69 1005.0
20220527162550 69 146 1.0 8.0 0.00 0.03 0.00 69 1005.0
20220527161400 69 119 1.0 8.0 0.00 0.05 0.00 68 1005.0
20220527160122 68 277 3.0 9.0 0.00 0.19 0.00 69 1005.0
20220527154847 68 130 1.0 9.0 0.00 0.29 0.00 70 1005.0
20220527153650 68 30 1.0 7.0 0.00 0.31 0.00 71 1005.0
20220527152433 69 305 1.0 4.0 0.00 0.55 0.00 72 1005.0
20220527151234 67 236 1.0 7.0 0.00 0.57 0.00 74 1005.1
20220527150050 67 90 1.0 7.0 0.00 0.57 0.00 75 1005.2
20220527144841 66 112 1.0 7.0 0.00 0.59 0.00 74 1005.3
20220527143631 66 143 1.0 8.0 0.00 0.59 0.00 76 1005.2
20220527142425 67 228 1.0 9.0 0.00 0.59 0.00 75 1005.3
20220527141149 67 296 1.0 9.0 0.00 0.59 0.00 77 1005.5
20220527135916 66 267 1.0 8.0 0.00 0.59 0.00 78 1005.4
20220527134640 65 224 1.0 11.0 0.00 0.59 0.00 78 1005.5
20220527133438 64 127 3.0 8.0 0.00 0.59 0.00 81 1005.4
20220527132248 65 288 1.0 8.0 0.00 0.59 0.00 79 1005.5
20220527131117 64 168 1.0 7.0 0.00 0.59 0.00 80 1005.5
20220527125845 64 119 1.0 7.0 0.00 0.59 0.00 83 1005.3
20220527124626 63 254 1.0 7.0 0.00 0.59 0.00 84 1005.5
20220527123352 62 236 1.0 7.0 0.00 0.59 0.00 86 1005.5
20220527122145 62 120 0.0 7.0 0.00 0.59 0.00 87 1005.4
20220527120913 62 82 0.0 6.0 0.00 0.59 0.00 88 1005.3
20220527115639 61 118 0.0 4.0 0.00 0.59 0.00 89 1005.3
20220527114429 61 319 0.0 4.0 0.00 0.59 0.00 89 1005.3